FW9116 Weather Reports


Display with metric or nautical units.
time (UTC)temp
F
wind
direction
speed
MPH
gust
MPH
rain 1hr
in
rain 24hr
in
rain mn
in
humidity
%
barometer
mb
20260905042558 57 0 0.0 1.0 0.00 0.21 0.21 90 1015.2
20260905042054 57 0 0.0 1.0 0.00 0.21 0.21 90 1015.1
20260905041611 57 0 0.0 0.0 0.00 0.21 0.21 90 1015.2
20260905041054 57 0 0.0 0.0 0.00 0.21 0.21 90 1015.1
20260905040555 57 0 0.0 0.0 0.00 0.21 0.21 90 1015.0
20260905040112 57 0 0.0 2.0 0.00 0.21 0.21 90 1015.1
20260905035555 57 0 0.0 2.0 0.00 0.21 0.21 89 1015.0
20260905035054 57 0 0.0 2.0 0.00 0.21 0.21 89 1014.9
20260905034607 57 0 0.0 2.0 0.00 0.21 0.21 89 1014.7
20260905034055 57 0 0.0 1.0 0.00 0.21 0.21 89 1014.7
20260905033554 58 0 0.0 1.0 0.00 0.21 0.21 89 1014.7
20260905033109 58 0 0.0 3.0 0.00 0.21 0.21 89 1014.7
20260905032555 58 0 1.0 3.0 0.00 0.21 0.21 88 1014.7
20260905032053 58 0 1.0 4.0 0.00 0.21 0.21 88 1014.7
20260905031613 58 0 1.0 4.0 0.00 0.21 0.21 88 1014.7
20260905031055 58 0 0.0 0.0 0.00 0.21 0.21 88 1014.6
20260905030554 59 0 0.0 0.0 0.00 0.21 0.21 88 1014.6
20260905030111 59 0 0.0 0.0 0.00 0.21 0.21 88 1014.6
20260905025555 59 0 0.0 0.0 0.00 0.21 0.21 88 1014.6
20260905025054 59 0 0.0 0.0 0.00 0.21 0.21 88 1014.5
20260905024612 59 0 0.0 0.0 0.00 0.21 0.21 87 1014.5
20260905024103 59 0 0.0 0.0 0.00 0.21 0.21 87 1014.5
20260905023558 60 0 0.0 0.0 0.00 0.21 0.21 87 1014.5
20260905023107 60 0 0.0 0.0 0.00 0.21 0.21 87 1014.5
20260905022557 60 0 0.0 0.0 0.00 0.21 0.21 87 1014.5
20260905022058 60 0 0.0 0.0 0.00 0.21 0.21 87 1014.5
20260905021614 60 0 0.0 0.0 0.00 0.21 0.21 87 1014.4
20260905021057 60 0 0.0 0.0 0.00 0.21 0.21 87 1014.4
20260905020557 60 0 0.0 2.0 0.00 0.21 0.21 86 1014.4
20260905020108 60 0 0.0 3.0 0.00 0.21 0.21 87 1014.3
20260905015554 60 0 1.0 3.0 0.00 0.21 0.21 86 1014.4
20260905015054 60 0 0.0 4.0 0.00 0.21 0.21 86 1014.4
20260905014600 60 132 0.0 4.0 0.01 0.21 0.21 87 1014.3
20260905014054 60 112 1.0 3.0 0.01 0.21 0.21 87 1014.2
20260905013555 60 0 0.0 3.0 0.01 0.21 0.21 87 1014.2
20260905013122 60 99 0.0 1.0 0.01 0.21 0.21 88 1014.2
20260905012555 60 0 0.0 1.0 0.01 0.21 0.21 87 1014.1
20260905012054 60 0 0.0 1.0 0.01 0.21 0.21 87 1014.1
20260905011613 60 153 0.0 2.0 0.01 0.21 0.21 87 1014.0
20260905011054 60 0 0.0 2.0 0.01 0.21 0.21 86 1013.9
20260905010555 61 0 0.0 1.0 0.01 0.21 0.21 86 1014.0
20260905010108 61 0 0.0 2.0 0.01 0.21 0.21 86 1013.9
20260905005557 61 0 0.0 2.0 0.01 0.22 0.21 86 1013.9
20260905005057 61 143 0.0 2.0 0.01 0.22 0.21 86 1014.0
20260905004608 61 142 0.0 2.0 0.00 0.21 0.20 86 1013.9
20260905004054 61 0 0.0 2.0 0.00 0.21 0.20 86 1013.9
20260905003554 61 0 0.0 3.0 0.00 0.21 0.20 85 1013.9
20260905003105 61 0 0.0 4.0 0.00 0.21 0.20 85 1013.9
20260905002558 61 0 1.0 4.0 0.00 0.21 0.20 85 1014.0
20260905002057 61 182 0.0 4.0 0.00 0.21 0.20 85 1014.0
20260905001603 61 187 0.0 3.0 0.00 0.21 0.20 85 1014.0
20260905001054 61 0 0.0 3.0 0.00 0.21 0.20 85 1013.9
20260905000559 61 327 0.0 2.0 0.00 0.21 0.20 85 1013.8
20260905000105 61 0 0.0 2.0 0.00 0.21 0.20 85 1013.8
20260904235555 61 0 0.0 2.0 0.00 0.21 0.20 86 1013.9
20260904235058 61 0 0.0 4.0 0.00 0.21 0.20 86 1013.9
20260904234600 61 0 1.0 4.0 0.00 0.21 0.20 87 1013.9
20260904234056 60 113 0.0 3.0 0.00 0.21 0.20 87 1013.9
20260904233555 60 95 0.0 3.0 0.00 0.21 0.20 87 1013.8
20260904233107 60 95 0.0 4.0 0.00 0.21 0.20 87 1013.8
20260904232555 60 0 2.0 5.0 0.00 0.21 0.20 87 1013.8
20260904232054 60 136 1.0 6.0 0.00 0.21 0.20 89 1013.7
20260904231601 59 0 1.0 8.0 0.00 0.21 0.20 89 1013.7
20260904231054 59 103 2.0 8.0 0.00 0.21 0.20 89 1013.7
20260904230558 59 88 2.0 7.0 0.01 0.21 0.20 90 1013.6
20260904230111 58 92 3.0 10.0 0.01 0.21 0.20 90 1013.6
20260904225554 59 119 4.0 10.0 0.02 0.21 0.20 91 1013.7
20260904225055 59 80 3.0 8.0 0.02 0.21 0.20 91 1013.6
20260904224622 59 0 0.0 7.0 0.02 0.21 0.20 92 1013.7
20260904224057 58 120 2.0 7.0 0.02 0.21 0.20 91 1013.7
20260904223557 59 117 1.0 4.0 0.03 0.21 0.20 91 1013.7
20260904223111 59 94 1.0 5.0 0.04 0.21 0.20 90 1013.8
20260904222555 59 103 1.0 5.0 0.06 0.21 0.20 90 1013.8
20260904222055 59 0 1.0 4.0 0.07 0.21 0.20 90 1013.9
20260904221629 59 0 0.0 4.0 0.10 0.21 0.20 89 1013.9
20260904221055 59 0 1.0 2.0 0.11 0.21 0.20 88 1013.8
20260904220555 59 92 0.0 2.0 0.11 0.20 0.19 88 1013.7
20260904215559 59 21 0.0 1.0 0.10 0.19 0.18 86 1013.5
20260904215058 59 0 0.0 2.0 0.10 0.19 0.18 85 1013.4
20260904214601 59 0 0.0 4.0 0.10 0.19 0.18 83 1013.4
20260904214055 60 37 2.0 4.0 0.10 0.19 0.18 82 1013.4
20260904213554 60 25 2.0 3.0 0.09 0.18 0.17 80 1013.4
20260904213108 61 0 0.0 2.0 0.08 0.17 0.16 78 1013.2
20260904212555 61 0 0.0 10.0 0.06 0.15 0.14 77 1013.2
20260904212058 62 0 3.0 10.0 0.04 0.13 0.12 75 1013.2
20260904211606 63 227 2.0 7.0 0.02 0.11 0.10 73 1013.2
20260904211054 64 141 2.0 7.0 0.01 0.10 0.09 72 1013.2
20260904210556 64 286 1.0 8.0 0.00 0.09 0.08 70 1013.0
20260904210120 65 286 2.0 8.0 0.00 0.09 0.08 67 1012.8
20260904205555 66 281 2.0 8.0 0.00 0.10 0.08 66 1012.9
20260904205054 67 277 2.0 6.0 0.00 0.10 0.08 63 1012.7
20260904204602 67 300 0.0 4.0 0.00 0.10 0.08 63 1012.6
20260904204058 67 11 1.0 5.0 0.00 0.10 0.08 63 1012.5
20260904203558 68 0 0.0 5.0 0.00 0.10 0.08 64 1012.5
20260904203104 68 257 1.0 8.0 0.00 0.10 0.08 62 1012.5
20260904202554 68 0 2.0 8.0 0.00 0.10 0.08 61 1012.3
20260904202054 69 264 1.0 7.0 0.00 0.10 0.08 59 1012.5
20260904201636 70 248 1.0 5.0 0.00 0.10 0.08 60 1012.4
20260904201054 70 277 0.0 5.0 0.00 0.10 0.08 58 1012.3
20260904200554 69 318 2.0 7.0 0.00 0.10 0.08 59 1012.4
20260904200121 69 313 2.0 8.0 0.00 0.10 0.08 61 1012.4
20260904195555 68 32 1.0 8.0 0.00 0.10 0.08 61 1012.5
20260904195055 68 273 1.0 5.0 0.00 0.10 0.08 62 1012.4
20260904194605 67 249 0.0 5.0 0.00 0.10 0.08 62 1012.6
20260904194055 67 282 2.0 5.0 0.00 0.10 0.08 61 1012.7
20260904193558 67 0 0.0 2.0 0.00 0.10 0.08 63 1012.7
20260904193103 67 213 0.0 2.0 0.00 0.10 0.08 63 1012.7
20260904192555 67 0 0.0 3.0 0.00 0.10 0.08 62 1012.7
20260904192055 67 0 0.0 4.0 0.00 0.10 0.08 62 1012.7
20260904191601 67 77 2.0 4.0 0.00 0.10 0.08 61 1012.8
20260904191054 68 0 0.0 4.0 0.00 0.10 0.08 60 1012.8
20260904190553 68 0 0.0 4.0 0.00 0.10 0.08 61 1012.8
20260904190105 68 5 1.0 4.0 0.00 0.10 0.08 59 1012.7
20260904185555 68 0 1.0 4.0 0.00 0.12 0.08 61 1012.8
20260904185057 68 5 0.0 4.0 0.00 0.12 0.08 65 1012.7
20260904184606 66 65 1.0 4.0 0.00 0.12 0.08 65 1012.8
20260904184055 65 0 1.0 5.0 0.00 0.12 0.08 68 1012.8
20260904183555 65 63 2.0 6.0 0.00 0.12 0.08 69 1012.7
20260904183102 64 0 1.0 6.0 0.00 0.12 0.08 69 1012.6
20260904182554 64 51 2.0 6.0 0.00 0.12 0.08 71 1012.6
20260904182054 64 0 2.0 4.0 0.00 0.12 0.08 72 1012.5
20260904181559 64 79 0.0 2.0 0.00 0.12 0.08 73 1012.5
20260904181054 63 79 1.0 4.0 0.00 0.12 0.08 72 1012.5
20260904180554 63 0 0.0 4.0 0.00 0.12 0.08 72 1012.5
20260904180105 63 39 2.0 4.0 0.00 0.12 0.08 73 1012.5
20260904175555 63 0 0.0 4.0 0.00 0.12 0.08 76 1012.5
20260904175054 62 0 1.0 6.0 0.00 0.12 0.08 77 1012.5
20260904174603 62 0 1.0 6.0 0.00 0.12 0.08 79 1012.4
20260904174055 62 0 0.0 4.0 0.00 0.12 0.08 80 1012.4
20260904173555 61 0 0.0 5.0 0.00 0.12 0.08 81 1012.5
20260904173058 61 44 2.0 5.0 0.00 0.12 0.08 81 1012.4
20260904172555 61 43 1.0 4.0 0.00 0.12 0.08 82 1012.4
20260904172055 61 111 0.0 4.0 0.00 0.12 0.08 84 1012.4
20260904171621 60 44 2.0 4.0 0.00 0.12 0.08 85 1012.3
20260904171055 60 73 0.0 3.0 0.00 0.12 0.08 88 1012.3
20260904170554 59 0 0.0 3.0 0.00 0.12 0.08 89 1012.3
20260904170104 58 81 0.0 3.0 0.00 0.12 0.08 90 1012.3
20260904165554 58 0 0.0 3.0 0.00 0.12 0.08 92 1012.3
20260904165055 57 0 1.0 3.0 0.00 0.12 0.08 91 1012.3
20260904164602 57 54 0.0 0.0 0.00 0.12 0.08 93 1012.3
20260904164056 56 0 0.0 0.0 0.00 0.12 0.08 93 1012.2
20260904163554 56 0 0.0 0.0 0.01 0.12 0.08 93 1012.2
20260904163108 56 0 0.0 0.0 0.01 0.12 0.08 94 1012.2
20260904162555 56 0 0.0 3.0 0.02 0.12 0.08 94 1012.2
20260904162054 55 0 0.0 3.0 0.02 0.12 0.08 94 1012.1
20260904161612 55 0 0.0 3.0 0.02 0.12 0.08 94 1012.0
20260904161054 55 0 0.0 2.0 0.02 0.12 0.08 94 1012.0
20260904160556 55 0 0.0 2.0 0.02 0.12 0.08 94 1012.0
20260904160103 55 0 0.0 2.0 0.02 0.12 0.08 93 1012.2
20260904155558 55 90 0.0 2.0 0.02 0.15 0.08 94 1012.2
20260904155055 54 0 0.0 2.0 0.02 0.15 0.08 93 1012.1
20260904154602 54 0 0.0 2.0 0.02 0.15 0.08 93 1012.1
20260904154056 54 69 0.0 1.0 0.02 0.15 0.08 93 1012.1
20260904153555 54 0 0.0 2.0 0.01 0.14 0.07 93 1012.1
20260904153117 54 0 0.0 2.0 0.01 0.14 0.07 93 1012.2
20260904152555 54 0 0.0 0.0 0.00 0.13 0.06 93 1012.0
20260904152055 54 0 0.0 1.0 0.00 0.13 0.06 93 1012.1
20260904151605 53 0 0.0 3.0 0.00 0.13 0.06 93 1012.0
20260904151055 53 0 0.0 3.0 0.00 0.13 0.06 93 1012.0
20260904150555 53 0 0.0 3.0 0.00 0.13 0.06 93 1011.9
20260904150103 53 0 0.0 2.0 0.00 0.13 0.06 93 1011.9
20260904145556 53 0 0.0 2.0 0.00 0.18 0.06 93 1011.8
20260904145056 53 108 0.0 2.0 0.00 0.18 0.06 93 1011.8
20260904144615 53 0 0.0 2.0 0.00 0.18 0.06 94 1011.5
20260904144057 53 0 0.0 2.0 0.00 0.18 0.06 93 1011.6
20260904143555 53 0 0.0 0.0 0.00 0.18 0.06 94 1011.5
20260904143117 53 0 0.0 0.0 0.00 0.18 0.06 94 1011.5
20260904142556 53 0 0.0 2.0 0.00 0.18 0.06 93 1011.4
20260904142055 53 0 0.0 2.0 0.00 0.18 0.06 93 1011.3
20260904141604 53 0 0.0 2.0 0.00 0.18 0.06 93 1011.2
20260904141054 53 0 0.0 2.0 0.00 0.18 0.06 93 1011.2
20260904140557 53 0 0.0 3.0 0.00 0.18 0.06 93 1011.2
20260904135555 53 0 0.0 3.0 0.00 0.22 0.06 93 1011.2
20260904135055 53 49 0.0 3.0 0.00 0.22 0.06 94 1011.2
20260904134601 53 0 0.0 2.0 0.00 0.22 0.06 93 1011.1
20260904134055 53 0 0.0 2.0 0.00 0.22 0.06 93 1011.1
20260904133555 53 0 0.0 2.0 0.00 0.22 0.06 93 1011.0
20260904133113 53 0 0.0 2.0 0.00 0.22 0.06 93 1010.9
20260904132555 53 0 0.0 2.0 0.00 0.22 0.06 93 1010.9
20260904132055 53 0 0.0 3.0 0.00 0.22 0.06 93 1010.8
20260904131601 53 0 0.0 3.0 0.00 0.22 0.06 93 1010.8
20260904131059 53 0 0.0 2.0 0.00 0.22 0.06 93 1010.8
20260904130555 53 0 0.0 2.0 0.00 0.22 0.06 93 1010.7
20260904130108 53 0 0.0 2.0 0.00 0.22 0.06 93 1010.8
20260904125555 53 0 0.0 2.0 0.00 0.23 0.06 93 1010.8
20260904125059 53 67 0.0 2.0 0.00 0.23 0.06 93 1010.9
20260904124602 53 0 0.0 2.0 0.00 0.23 0.06 93 1010.8
20260904124055 53 0 0.0 1.0 0.01 0.23 0.06 93 1010.7
20260904123555 53 0 0.0 1.0 0.01 0.23 0.06 93 1010.7
20260904123103 53 0 0.0 0.0 0.02 0.23 0.06 93 1010.6
20260904122556 53 0 0.0 0.0 0.02 0.23 0.06 93 1010.5
20260904122059 53 0 0.0 0.0 0.03 0.23 0.06 93 1010.6
20260904121558 53 0 0.0 4.0 0.03 0.23 0.06 93 1010.5
20260904121056 53 0 0.0 4.0 0.04 0.23 0.06 93 1010.4
20260904120559 53 0 0.0 1.0 0.04 0.23 0.06 93 1010.3
20260904120108 53 0 0.0 3.0 0.04 0.23 0.06 92 1010.4
20260904115555 53 0 0.0 3.0 0.04 0.23 0.06 93 1010.3
20260904115056 53 0 0.0 6.0 0.05 0.23 0.06 92 1010.3
20260904114607 53 0 0.0 6.0 0.05 0.23 0.06 92 1010.3
20260904114057 53 0 0.0 6.0 0.05 0.22 0.05 92 1010.2
20260904113557 53 116 0.0 6.0 0.05 0.22 0.05 92 1010.2
20260904113102 53 83 0.0 6.0 0.04 0.21 0.04 92 1010.3
20260904112555 53 92 1.0 4.0 0.04 0.21 0.04 91 1010.2
20260904112057 53 103 0.0 5.0 0.03 0.20 0.03 91 1010.1
20260904111602 53 0 1.0 6.0 0.03 0.20 0.03 91 1010.0
20260904111055 53 0 0.0 6.0 0.02 0.19 0.02 91 1010.1
20260904110556 53 0 1.0 6.0 0.02 0.19 0.02 91 1010.0
20260904105555 54 74 0.0 3.0 0.02 0.19 0.02 91 1010.0
20260904105054 54 0 1.0 3.0 0.01 0.18 0.01 90 1010.0
20260904104603 54 0 0.0 3.0 0.01 0.18 0.01 90 1010.0
20260904104057 54 0 0.0 2.0 0.00 0.17 0.00 90 1010.1
20260904103554 54 0 0.0 1.0 0.00 0.17 0.00 90 1010.1
20260904103059 54 0 0.0 0.0 0.00 0.17 0.00 90 1010.1
20260904102555 54 0 0.0 0.0 0.00 0.17 0.00 90 1010.0
20260904102055 54 0 0.0 0.0 0.00 0.17 0.00 89 1010.0
20260904101606 54 0 0.0 0.0 0.00 0.17 0.00 89 1010.0
20260904101056 54 0 0.0 2.0 0.00 0.17 0.00 89 1009.9
20260904100555 54 0 0.0 2.0 0.00 0.17 0.00 89 1009.9
20260904100104 54 0 0.0 2.0 0.00 0.17 0.00 90 1009.9
20260904095558 54 0 0.0 4.0 0.00 0.17 0.00 90 1009.9
20260904095055 54 0 0.0 4.0 0.00 0.17 0.00 90 1009.8
20260904094603 54 0 0.0 4.0 0.00 0.17 0.00 90 1009.8
20260904094057 54 0 0.0 2.0 0.00 0.17 0.00 90 1009.8
20260904093555 54 83 0.0 4.0 0.00 0.17 0.00 90 1009.8
20260904093113 54 0 0.0 4.0 0.00 0.17 0.00 90 1009.7
20260904092557 54 79 0.0 6.0 0.00 0.17 0.00 90 1009.7
20260904092057 54 0 1.0 6.0 0.00 0.17 0.00 90 1009.7
20260904091606 54 0 0.0 4.0 0.00 0.17 0.00 90 1009.8
20260904091054 54 0 1.0 4.0 0.00 0.17 0.00 90 1009.7
20260904090555 54 0 0.0 4.0 0.00 0.17 0.00 90 1009.6
20260904085558 55 0 0.0 3.0 0.00 0.19 0.00 90 1009.7
20260904085058 55 0 0.0 4.0 0.00 0.19 0.00 90 1009.6
20260904084603 55 0 0.0 4.0 0.00 0.19 0.00 90 1009.7
20260904084100 55 24 0.0 3.0 0.00 0.19 0.00 91 1009.6
20260904083600 55 0 0.0 2.0 0.00 0.19 0.00 91 1009.7
20260904083105 55 0 0.0 2.0 0.00 0.19 0.00 90 1009.6
20260904082555 55 0 0.0 2.0 0.00 0.19 0.00 90 1009.6
20260904082052 55 0 0.0 2.0 0.00 0.19 0.00 90 1009.6
20260904081603 55 0 0.0 2.0 0.00 0.19 0.00 90 1009.7
20260904081055 55 0 0.0 3.0 0.00 0.19 0.00 90 1009.6
20260904080559 55 0 0.0 3.0 0.00 0.19 0.00 90 1009.7
20260904080119 55 165 0.0 6.0 0.00 0.19 0.00 90 1009.8
20260904075555 55 0 1.0 6.0 0.00 0.20 0.00 90 1009.8
20260904075056 55 76 0.0 3.0 0.00 0.20 0.00 90 1009.8
20260904074600 55 0 1.0 3.0 0.00 0.20 0.00 91 1009.7
20260904074059 55 0 0.0 3.0 0.00 0.20 0.00 91 1009.8
20260904073555 55 102 0.0 2.0 0.00 0.20 0.00 91 1009.7
20260904073111 55 140 0.0 2.0 0.00 0.20 0.00 91 1009.7
20260904072557 55 0 0.0 4.0 0.00 0.20 0.00 91 1009.8
20260904072057 55 0 0.0 4.0 0.00 0.20 0.00 91 1009.8
20260904071557 55 0 1.0 4.0 0.00 0.20 0.00 91 1009.7
20260904071055 55 0 0.0 4.0 0.00 0.20 0.00 91 1009.7
20260904070555 55 91 0.0 3.0 0.00 0.20 0.00 91 1009.6
20260904065554 55 80 0.0 4.0 0.00 0.21 0.20 91 1009.6
20260904065056 55 92 0.0 2.0 0.00 0.21 0.20 91 1009.7
20260904064604 55 0 0.0 4.0 0.00 0.21 0.20 91 1009.7
20260904064055 55 0 0.0 4.0 0.00 0.21 0.20 91 1009.6
20260904063558 55 84 0.0 3.0 0.00 0.21 0.20 91 1009.6
20260904063117 55 0 0.0 3.0 0.00 0.21 0.20 91 1009.6
20260904062555 55 86 0.0 2.0 0.00 0.21 0.20 91 1009.5
20260904062055 56 0 0.0 3.0 0.00 0.21 0.20 91 1009.6
20260904061602 56 0 0.0 3.0 0.00 0.21 0.20 91 1009.6
20260904061057 56 143 0.0 2.0 0.00 0.21 0.20 91 1009.5
20260904060558 56 0 0.0 2.0 0.00 0.21 0.20 91 1009.5
20260904060105 56 0 0.0 2.0 0.00 0.21 0.20 91 1009.6
20260904055555 56 0 0.0 3.0 0.00 0.21 0.20 91 1009.5
20260904055055 56 0 0.0 3.0 0.00 0.21 0.20 91 1009.6
20260904054601 56 65 0.0 2.0 0.00 0.21 0.20 91 1009.6
20260904054056 56 0 0.0 0.0 0.00 0.21 0.20 91 1009.6
20260904053555 56 0 0.0 0.0 0.00 0.21 0.20 91 1009.7
20260904053120 56 0 0.0 1.0 0.00 0.21 0.20 91 1009.7
20260904052555 56 0 0.0 1.0 0.00 0.21 0.20 90 1009.7
20260904052055 56 0 0.0 3.0 0.00 0.21 0.20 90 1009.7
20260904051600 56 0 0.0 3.0 0.00 0.21 0.20 90 1009.7
20260904051056 56 205 0.0 0.0 0.00 0.21 0.20 90 1009.7
20260904050559 56 0 0.0 0.0 0.00 0.21 0.20 90 1009.9
20260904050105 56 0 0.0 0.0 0.00 0.21 0.20 90 1009.8
20260904045556 56 0 0.0 0.0 0.00 0.21 0.20 90 1009.9
20260904045055 56 0 0.0 0.0 0.00 0.21 0.20 90 1009.8
20260904044614 56 0 0.0 0.0 0.00 0.21 0.20 90 1009.9
20260904044055 56 0 0.0 0.0 0.00 0.21 0.20 90 1009.8
20260904043555 56 0 0.0 0.0 0.00 0.21 0.20 90 1010.0
20260904043106 56 0 0.0 0.0 0.00 0.21 0.20 90 1009.9